Precipitable_Water
0.62 0.63 0.65 0.65 0.65 0.66 0.61 0.61 0.62 0.69 0.76 0.85 0.91 0.91 0.91 0.86 0.68 0.59 0.73 0.82 0.93 1.01 1.07 1.05 1.07 1.09 1.03 0.81 0.79 1.16 1.02 0.83 0.67 0.57 0.44 0.39 0.34 0.30 0.23 0.25 0.28 0.25 0.29 0.32 0.34 0.31 0.29
0.65 0.62 0.63 0.62 0.62 0.62 0.67 0.62 0.60 0.67 0.76 0.82 0.87 0.91 0.95 0.91 0.75 0.62 0.76 0.86 0.93 0.98 1.05 1.09 1.07 1.07 0.88 0.65 1.09 1.03 0.88 0.77 0.65 0.55 0.46 0.42 0.38 0.37 0.29 0.27 0.24 0.30 0.29 0.30 0.30 0.28 0.27
0.64 0.63 0.61 0.63 0.61 0.62 0.61 0.61 0.59 0.64 0.70 0.76 0.86 0.88 0.89 0.93 0.88 0.91 0.83 0.90 0.91 0.97 1.02 0.99 0.99 0.95 0.79 0.75 1.05 0.96 0.85 0.74 0.68 0.58 0.47 0.48 0.47 0.39 0.35 0.27 0.32 0.30 0.23 0.25 0.27 0.26 0.24
0.67 0.61 0.60 0.63 0.63 0.62 0.60 0.59 0.57 0.60 0.68 0.70 0.78 0.83 0.86 0.90 0.93 0.92 0.89 0.90 0.90 0.96 0.97 0.95 0.95 0.86 0.68 1.02 1.00 0.84 0.81 0.70 0.66 0.60 0.52 0.52 0.49 0.43 0.37 0.37 0.30 0.24 0.23 0.17 0.24 0.24 0.24
0.72 0.61 0.59 0.58 0.66 0.62 0.63 0.59 0.54 0.56 0.63 0.65 0.70 0.74 0.83 0.88 0.88 0.91 0.90 0.88 0.89 0.88 0.90 0.89 0.83 0.76 0.64 1.00 0.83 0.89 0.88 0.64 0.59 0.56 0.52 0.49 0.44 0.37 0.35 0.26 0.21 0.22 0.15 0.16 0.19 0.26 0.25
0.75 0.69 0.58 0.58 0.60 0.65 0.62 0.60 0.57 0.54 0.59 0.64 0.64 0.66 0.73 0.83 0.84 0.87 0.87 0.84 0.83 0.85 0.84 0.83 0.78 0.64 0.75 0.71 0.81 0.79 0.83 0.74 0.60 0.52 0.43 0.39 0.35 0.29 0.29 0.26 0.15 0.17 0.18 0.20 0.18 0.24 0.25
0.83 0.77 0.63 0.57 0.58 0.62 0.66 0.62 0.58 0.53 0.55 0.60 0.60 0.62 0.65 0.70 0.76 0.79 0.79 0.72 0.61 0.62 0.67 0.58 0.61 0.62 0.67 0.78 0.83 0.69 0.71 0.66 0.62 0.52 0.38 0.41 0.29 0.25 0.28 0.29 0.27 0.24 0.22 0.20 0.23 0.29 0.25
0.89 0.82 0.74 0.61 0.58 0.58 0.63 0.66 0.63 0.56 0.52 0.57 0.59 0.60 0.62 0.63 0.65 0.70 0.73 0.58 0.63 0.68 0.49 0.62 0.63 0.65 0.70 0.73 0.57 0.62 0.69 0.51 0.44 0.39 0.42 0.35 0.28 0.33 0.33 0.32 0.30 0.29 0.26 0.25 0.30 0.35 0.33
0.94 0.84 0.78 0.68 0.61 0.57 0.58 0.64 0.67 0.63 0.57 0.53 0.56 0.58 0.60 0.62 0.65 0.61 0.58 0.62 0.78 0.74 0.45 0.51 0.58 0.56 0.59 0.63 0.56 0.55 0.61 0.53 0.45 0.42 0.41 0.34 0.34 0.37 0.32 0.31 0.29 0.31 0.29 0.30 0.30 0.35 0.35
0.91 0.88 0.77 0.75 0.62 0.59 0.58 0.60 0.64 0.66 0.63 0.54 0.53 0.54 0.57 0.58 0.49 0.55 0.51 0.66 0.73 0.72 0.33 0.38 0.46 0.53 0.56 0.57 0.47 0.63 0.62 0.53 0.46 0.39 0.41 0.38 0.42 0.36 0.34 0.30 0.33 0.27 0.38 0.35 0.32 0.27 0.18
0.84 0.88 0.81 0.76 0.69 0.59 0.57 0.58 0.60 0.63 0.64 0.59 0.53 0.51 0.54 0.53 0.46 0.42 0.53 0.67 0.68 0.56 0.16 0.39 0.46 0.64 0.56 0.46 0.47 0.50 0.63 0.51 0.41 0.40 0.40 0.31 0.34 0.35 0.32 0.32 0.34 0.28 0.36 0.32 0.29 0.25 0.22
0.76 0.85 0.85 0.76 0.76 0.62 0.57 0.56 0.59 0.60 0.61 0.60 0.57 0.54 0.53 0.49 0.49 0.52 0.60 0.66 0.57 0.25 0.18 0.33 0.45 0.43 0.44 0.47 0.47 0.52 0.51 0.56 0.55 0.42 0.40 0.37 0.42 0.39 0.36 0.37 0.36 0.36 0.31 0.30 0.28 0.23 0.12
0.72 0.78 0.82 0.77 0.76 0.74 0.59 0.55 0.56 0.59 0.60 0.59 0.60 0.59 0.56 0.54 0.39 0.56 0.59 0.52 0.21 0.18 0.35 0.31 0.35 0.40 0.40 0.39 0.41 0.42 0.39 0.35 0.31 0.25 0.27 0.33 0.34 0.38 0.38 0.30 0.35 0.31 0.22 0.13 0.11 0.12 0.11
0.71 0.73 0.79 0.76 0.75 0.75 0.73 0.58 0.52 0.53 0.56 0.58 0.61 0.64 0.63 0.62 0.65 0.63 0.50 0.26 0.13 0.25 0.27 0.39 0.40 0.39 0.33 0.37 0.36 0.38 0.34 0.30 0.35 0.31 0.25 0.20 0.17 0.30 0.35 0.31 0.26 0.27 0.26 0.16 0.09 0.11 0.15
0.73 0.71 0.74 0.75 0.72 0.76 0.74 0.69 0.56 0.50 0.49 0.51 0.55 0.57 0.56 0.61 0.68 0.64 0.34 0.17 0.19 0.26 0.33 0.33 0.35 0.29 0.28 0.33 0.33 0.33 0.31 0.29 0.32 0.33 0.20 0.19 0.19 0.36 0.37 0.41 0.40 0.34 0.26 0.38 0.26 0.27 0.21
0.70 0.71 0.71 0.72 0.69 0.73 0.75 0.71 0.65 0.53 0.48 0.47 0.41 0.46 0.46 0.63 0.68 0.51 0.33 0.27 0.32 0.40 0.39 0.37 0.25 0.28 0.24 0.27 0.28 0.30 0.30 0.36 0.33 0.38 0.41 0.30 0.22 0.36 0.41 0.47 0.48 0.42 0.48 0.31 0.33 0.20 0.19
0.69 0.70 0.70 0.71 0.68 0.70 0.72 0.71 0.68 0.62 0.53 0.48 0.41 0.29 0.46 0.63 0.60 0.37 0.24 0.30 0.38 0.47 0.48 0.40 0.35 0.33 0.33 0.31 0.33 0.33 0.34 0.40 0.45 0.44 0.46 0.42 0.37 0.36 0.46 0.40 0.37 0.41 0.38 0.40 0.39 0.34 0.23
0.69 0.69 0.70 0.72 0.69 0.67 0.70 0.70 0.68 0.64 0.62 0.52 0.37 0.20 0.48 0.58 0.27 0.30 0.25 0.31 0.38 0.36 0.42 0.39 0.41 0.38 0.35 0.35 0.33 0.32 0.30 0.35 0.45 0.42 0.34 0.41 0.33 0.27 0.33 0.47 0.51 0.48 0.40 0.38 0.29 0.27 0.31
0.68 0.69 0.69 0.73 0.72 0.66 0.66 0.68 0.68 0.68 0.65 0.56 0.36 0.30 0.49 0.45 0.17 0.22 0.30 0.28 0.32 0.31 0.32 0.31 0.29 0.31 0.32 0.30 0.25 0.26 0.27 0.36 0.38 0.35 0.30 0.35 0.26 0.18 0.23 0.31 0.39 0.34 0.35 0.36 0.36 0.34 0.25
0.66 0.67 0.70 0.69 0.72 0.68 0.65 0.69 0.69 0.68 0.69 0.59 0.49 0.29 0.34 0.36 0.34 0.25 0.23 0.24 0.23 0.32 0.29 0.31 0.28 0.30 0.27 0.23 0.24 0.19 0.20 0.28 0.34 0.34 0.37 0.35 0.23 0.17 0.10 0.14 0.22 0.21 0.22 0.27 0.25 0.18 0.16
0.64 0.66 0.68 0.69 0.72 0.73 0.67 0.70 0.72 0.69 0.68 0.59 0.46 0.40 0.42 0.27 0.28 0.27 0.27 0.24 0.22 0.23 0.30 0.31 0.26 0.25 0.21 0.18 0.19 0.19 0.21 0.23 0.28 0.32 0.32 0.28 0.15 0.17 0.17 0.18 0.20 0.18 0.17 0.20 0.19 0.19 0.14
0.62 0.65 0.67 0.69 0.71 0.72 0.70 0.67 0.70 0.71 0.69 0.52 0.42 0.42 0.49 0.40 0.37 0.31 0.28 0.24 0.21 0.24 0.25 0.24 0.22 0.26 0.25 0.19 0.19 0.17 0.21 0.20 0.19 0.27 0.26 0.29 0.15 0.18 0.13 0.15 0.16 0.13 0.15 0.16 0.18 0.20 0.20
0.60 0.63 0.66 0.68 0.68 0.69 0.71 0.67 0.68 0.70 0.70 0.55 0.59 0.59 0.47 0.44 0.40 0.33 0.30 0.30 0.28 0.29 0.28 0.29 0.28 0.25 0.21 0.22 0.27 0.29 0.30 0.28 0.26 0.23 0.23 0.24 0.21 0.17 0.11 0.16 0.15 0.09 0.10 0.12 0.15 0.18 0.18
0.65 0.66 0.68 0.69 0.70 0.69 0.71 0.73 0.68 0.73 0.72 0.67 0.64 0.60 0.48 0.37 0.41 0.37 0.36 0.37 0.34 0.33 0.27 0.31 0.33 0.27 0.29 0.38 0.34 0.28 0.25 0.24 0.25 0.25 0.28 0.22 0.22 0.21 0.14 0.16 0.08 0.11 0.20 0.19 0.17 0.17 0.18
0.75 0.73 0.69 0.68 0.69 0.71 0.73 0.76 0.78 0.76 0.78 0.71 0.72 0.60 0.53 0.45 0.45 0.38 0.39 0.35 0.36 0.37 0.35 0.34 0.34 0.38 0.41 0.34 0.23 0.16 0.16 0.20 0.23 0.30 0.30 0.32 0.27 0.21 0.15 0.14 0.14 0.14 0.16 0.16 0.15 0.12 0.17
0.84 0.83 0.80 0.77 0.76 0.79 0.81 0.84 0.85 0.87 0.85 0.80 0.74 0.74 0.60 0.52 0.46 0.50 0.43 0.45 0.36 0.35 0.32 0.37 0.47 0.50 0.44 0.31 0.25 0.17 0.13 0.15 0.14 0.20 0.31 0.32 0.33 0.25 0.21 0.14 0.09 0.12 0.18 0.23 0.22 0.11 0.18
0.89 0.87 0.86 0.87 0.87 0.88 0.93 0.95 0.95 0.96 0.93 0.85 0.78 0.80 0.67 0.55 0.59 0.58 0.50 0.45 0.47 0.38 0.39 0.39 0.42 0.42 0.44 0.31 0.26 0.22 0.19 0.23 0.17 0.18 0.21 0.24 0.26 0.21 0.21 0.19 0.18 0.21 0.24 0.26 0.14 0.13 0.22
1.00 1.00 0.98 0.99 0.99 0.99 1.01 1.02 1.01 1.01 0.98 0.90 0.81 0.85 0.72 0.61 0.63 0.64 0.61 0.57 0.56 0.53 0.45 0.45 0.40 0.42 0.41 0.31 0.29 0.26 0.25 0.29 0.30 0.30 0.27 0.25 0.24 0.23 0.25 0.20 0.14 0.28 0.27 0.20 0.22 0.27 0.28
1.09 1.10 1.10 1.08 1.09 1.07 1.06 1.07 1.06 1.05 1.01 0.97 0.81 0.91 0.87 0.71 0.66 0.75 0.73 0.72 0.65 0.58 0.53 0.51 0.43 0.44 0.45 0.37 0.36 0.37 0.33 0.39 0.37 0.32 0.42 0.31 0.33 0.28 0.31 0.29 0.34 0.37 0.31 0.33 0.34 0.32 0.31
Wind_Speed
36 38 40 42 44 44 43 40 37 32 31 33 32 32 26 20 18 16 16 16 14 18 27 23 22 19 33 27 17 22 22 29 29 28 26 27 24 24 23 23 20 18 19 16 16 15 15
36 38 39 41 43 43 42 40 38 33 33 34 34 34 31 23 20 16 15 16 17 19 23 25 24 25 26 21 20 21 21 24 28 27 26 24 23 23 21 21 19 19 18 17 16 16 15
37 37 38 40 41 42 41 39 37 34 32 34 37 37 33 30 24 19 16 17 18 18 24 24 22 23 24 18 19 18 19 22 24 26 25 22 22 20 21 19 19 18 17 17 16 17 16
38 36 37 39 40 41 40 38 36 34 31 30 35 37 35 30 28 24 20 19 19 21 22 23 20 20 20 19 19 18 18 19 22 23 23 20 19 19 18 19 17 16 16 17 18 17 17
39 37 36 37 38 39 40 38 37 35 31 28 31 35 36 34 29 28 25 20 19 21 21 21 19 19 19 17 18 15 14 17 19 21 21 20 18 18 17 17 16 16 17 18 17 19 17
40 38 35 36 37 38 38 39 37 36 31 27 29 32 34 33 31 28 29 27 25 21 18 20 17 17 16 16 14 13 13 14 17 19 19 18 16 16 15 16 17 17 16 16 17 18 18
41 39 36 35 36 37 37 37 37 36 32 26 27 29 31 33 34 30 21 24 22 22 27 24 20 20 17 16 16 14 13 12 13 15 17 15 15 15 15 14 15 14 14 15 16 17 18
40 40 38 34 33 35 36 36 36 36 33 27 24 25 26 28 28 30 30 26 25 22 24 22 19 16 13 11 12 10 9 10 10 12 13 13 13 14 14 13 12 12 13 13 15 15 18
38 39 38 35 33 33 34 35 35 34 33 29 24 22 23 24 24 23 23 23 22 21 19 15 13 11 8 8 8 6 9 10 11 9 9 11 13 11 11 10 11 10 11 12 14 16 17
36 38 38 36 33 32 32 33 34 34 32 29 26 22 20 21 20 20 19 17 15 14 15 14 10 8 6 7 7 7 7 8 7 9 9 8 9 9 9 9 9 9 10 11 11 11 14
34 36 37 36 33 31 30 31 32 32 32 30 26 24 21 20 19 18 16 15 13 10 12 8 12 10 8 9 7 5 6 7 8 6 7 8 8 7 6 7 7 9 9 10 10 10 10
31 33 35 36 33 31 29 29 30 31 31 30 28 26 23 21 19 17 16 17 17 16 14 10 11 12 12 12 10 7 7 8 8 8 8 8 7 6 6 6 6 7 6 7 8 8 9
28 30 33 34 34 31 29 27 26 27 28 29 28 27 26 23 22 19 15 16 18 19 14 11 11 12 13 13 11 11 10 8 7 7 6 5 5 5 5 4 4 4 4 6 7 7 10
26 28 30 32 33 32 30 26 24 24 24 25 26 27 26 24 24 22 19 18 21 15 15 15 13 13 12 11 11 11 10 9 7 8 7 7 2 5 5 4 3 3 4 5 8 8 11
24 25 27 29 31 31 30 28 24 22 20 21 21 24 24 25 23 23 20 22 19 15 15 14 12 11 9 9 10 10 9 8 6 5 5 5 3 3 4 2 3 3 4 5 5 6 6
23 23 24 26 28 29 30 29 26 22 19 17 18 18 21 23 23 23 20 21 19 18 16 14 12 11 10 8 8 8 7 6 6 5 4 4 4 4 3 2 1 2 2 1 0 1 3
21 22 22 23 25 27 28 29 27 24 19 15 15 15 17 18 19 20 19 20 19 16 15 14 13 13 12 11 11 10 9 8 8 7 7 6 5 3 4 3 4 3 1 1 1 2 2
20 20 20 21 22 24 26 27 27 25 20 15 13 13 14 15 14 15 16 15 15 14 14 13 13 12 11 11 11 10 9 8 8 9 7 5 6 3 3 2 3 2 2 2 0 3 4
18 19 19 19 20 21 23 25 26 25 21 15 12 11 12 12 11 12 12 12 12 11 10 10 10 10 10 8 8 8 8 7 7 7 6 5 4 4 4 3 1 3 3 3 3 4 7
18 18 17 17 17 19 21 23 24 24 21 16 12 11 11 11 10 9 9 8 8 8 8 8 8 9 8 6 6 5 5 4 3 2 2 2 2 1 2 3 2 5 6 7 6 7 9
18 17 16 16 16 17 19 21 23 23 19 16 13 10 9 8 9 8 7 5 6 5 5 5 5 4 5 5 4 3 4 4 3 2 2 3 6 6 9 12 12 14 15 12 14 15 12
18 17 16 16 15 16 18 19 21 22 18 15 12 11 10 8 7 6 6 4 3 4 3 3 2 3 3 2 2 3 3 3 3 3 3 5 7 9 10 11 10 14 15 16 18 19 20
19 18 17 16 16 16 17 18 19 21 18 14 13 12 9 8 7 6 5 5 4 4 4 3 3 4 5 6 6 7 7 8 8 6 7 7 8 9 9 11 14 13 10 12 10 11 14
21 20 19 18 17 17 17 18 18 19 18 14 13 12 10 9 8 7 6 6 7 7 7 6 5 6 7 8 11 12 12 13 12 12 11 9 8 9 11 13 8 9 9 9 10 13 14
23 22 21 20 20 19 19 19 19 19 18 15 14 12 11 11 10 10 8 8 9 9 9 9 10 10 9 10 10 10 9 9 7 8 9 9 8 10 8 9 16 12 8 7 7 13 13
26 25 24 23 22 21 21 20 20 20 18 16 15 13 12 11 11 10 10 10 9 9 10 9 9 9 9 8 8 8 8 8 7 7 7 6 8 8 10 10 10 10 9 9 10 14 9
29 29 28 27 26 25 24 23 22 20 19 17 16 15 14 13 12 12 11 10 10 10 10 12 11 10 9 9 9 9 10 9 9 8 8 8 10 14 14 14 15 16 12 11 10 13 13
36 35 33 32 31 30 28 26 24 22 21 19 18 16 16 16 17 14 13 13 13 13 12 12 12 11 10 9 9 10 10 11 11 11 11 11 10 12 12 13 15 11 11 12 16 17 17
40 39 38 36 35 33 31 29 27 25 23 21 19 18 18 17 19 19 20 19 17 16 14 14 13 12 12 11 12 12 13 14 13 14 13 13 14 14 15 16 19 19 19 21 22 22 23
Wind_Direction
21 19 18 17 18 18 19 22 23 26 27 27 26 23 21 24 26 36 45 53 74 105 128 127 136 147 152 157 162 172 179 184 186 187 189 190 193 195 197 200 204 206 209 212 215 221 229
21 20 19 19 19 20 21 24 27 29 31 29 27 26 29 33 38 45 55 64 77 117 127 129 111 119 143 138 152 160 168 174 180 183 186 189 194 195 196 201 205 210 209 214 222 227 234
21 21 20 20 20 21 22 24 26 29 30 31 31 34 37 38 44 49 66 78 81 110 129 127 112 108 110 127 143 151 156 167 175 180 183 187 191 196 196 199 205 209 214 220 230 233 236
22 21 21 21 21 22 23 24 26 27 29 33 33 35 35 39 51 56 69 84 86 100 125 131 114 107 111 110 124 134 151 160 170 176 180 184 187 190 198 200 208 213 219 223 230 233 239
22 22 22 22 22 23 24 25 26 26 30 35 34 36 39 47 54 58 66 88 91 101 114 130 116 105 107 108 115 122 137 160 169 175 179 184 187 192 200 202 211 221 222 226 234 235 240
23 22 22 23 23 24 25 26 27 28 31 38 39 39 45 51 55 62 68 75 90 103 111 123 114 106 106 109 113 114 127 149 161 174 180 186 190 193 201 207 214 217 223 229 234 239 243
23 23 22 22 23 25 25 26 28 29 32 40 41 45 50 54 57 58 69 74 90 88 93 109 111 108 111 110 105 112 119 132 151 171 179 187 186 195 200 208 212 214 223 229 239 246 253
22 22 22 22 23 25 26 27 28 30 33 40 45 47 51 51 55 59 66 76 84 103 103 96 102 103 106 112 107 97 115 131 136 149 168 178 185 196 202 208 211 218 225 241 248 251 259
21 22 22 22 24 25 26 28 29 32 34 40 45 48 49 47 53 58 65 74 83 91 97 91 95 97 109 105 113 106 116 132 122 132 153 170 184 196 199 207 213 230 233 244 251 266 262
20 21 22 23 24 25 27 28 30 32 35 40 44 44 44 43 52 55 63 68 80 94 94 69 72 88 98 120 112 121 127 146 147 150 152 155 182 183 190 201 213 222 239 244 253 263 258
19 20 21 23 23 25 26 28 31 33 36 39 43 44 43 44 51 52 55 59 71 92 94 62 67 80 78 114 138 111 133 122 133 148 159 177 171 178 183 207 214 223 241 247 253 260 270
17 19 21 22 23 24 26 28 31 34 36 40 43 45 46 46 48 51 53 63 72 80 85 82 78 75 81 86 97 110 125 130 128 118 121 146 162 169 184 203 210 232 248 256 259 266 273
14 17 19 21 23 23 25 26 29 32 36 40 43 45 48 49 49 50 58 71 72 76 87 86 88 82 75 81 89 93 100 115 127 124 125 123 140 160 171 187 233 236 259 271 280 270 255
11 13 16 19 21 22 23 24 26 29 33 37 41 43 45 48 50 55 65 70 72 85 92 93 89 84 86 82 82 89 96 99 100 117 128 137 141 170 181 201 234 252 239 245 255 271 272
8 10 12 16 19 21 22 22 22 24 27 32 36 42 45 46 51 60 67 67 81 86 90 94 88 86 82 87 97 96 91 103 101 105 126 138 158 158 182 225 237 250 275 261 275 270 273
3 6 8 11 15 18 19 20 20 20 23 29 35 41 42 45 53 60 66 70 73 77 79 79 80 86 87 80 85 87 94 90 100 95 102 121 123 164 163 155 158 179 136 116 338 270 275
357 0 4 7 10 14 16 18 19 19 21 29 34 41 38 43 51 59 63 67 71 74 74 76 74 78 80 80 76 78 82 83 86 86 80 94 91 102 112 158 157 133 170 165 214 232 237
350 354 358 2 7 9 13 15 17 18 20 25 32 37 32 39 48 52 59 64 67 69 71 72 72 72 76 72 73 80 87 86 97 95 93 97 92 97 155 121 162 159 186 174 126 273 270
340 345 351 356 1 6 10 12 14 15 18 20 27 29 29 37 49 47 53 61 63 68 66 66 65 69 71 73 73 73 73 75 94 94 87 88 72 51 30 23 311 252 248 252 276 290 265
329 336 341 347 354 1 4 6 9 10 13 19 22 25 23 34 39 51 52 48 55 58 62 66 64 65 60 61 65 60 57 60 78 77 72 44 354 268 258 287 301 273 269 260 259 273 282
318 324 330 336 343 351 356 1 4 6 9 15 17 18 18 16 20 29 32 42 41 37 39 52 53 63 62 49 45 42 31 20 358 316 324 317 303 294 288 284 283 279 275 267 257 260 270
308 313 317 323 328 338 346 352 358 1 3 8 10 9 8 5 2 360 2 358 8 8 25 359 1 17 7 356 359 350 348 336 317 322 301 309 308 314 300 293 291 283 276 268 261 262 269
299 303 307 311 315 322 332 339 347 353 355 356 354 354 354 351 354 357 334 332 330 337 322 308 307 321 309 299 299 297 293 294 293 288 284 295 301 317 298 314 309 297 278 263 273 272 266
291 294 298 301 305 310 318 325 333 340 345 342 342 341 341 330 338 328 326 315 305 299 300 303 293 294 299 303 302 297 291 284 278 277 274 287 292 296 298 314 308 290 300 292 274 278 271
285 287 289 292 295 300 306 313 320 325 329 328 328 327 327 320 313 315 315 309 309 303 291 285 285 285 296 305 307 313 310 306 303 287 268 266 281 299 303 300 299 302 301 291 282 298 286
280 282 284 286 289 291 296 301 309 314 318 313 316 316 315 313 306 305 306 306 303 305 306 294 293 288 294 297 302 299 297 299 301 309 313 288 273 280 302 298 293 293 296 299 306 303 284
277 279 279 281 283 285 288 292 297 302 306 307 303 304 304 301 295 296 296 294 297 297 296 299 296 293 291 288 285 278 285 287 291 283 282 288 282 268 275 286 291 288 278 296 300 296 299
274 275 275 276 278 280 281 284 286 290 293 295 297 295 295 293 291 284 282 286 290 288 288 292 300 290 295 290 286 284 280 285 290 284 282 275 277 280 276 278 286 283 293 276 288 299 297
272 271 270 271 273 274 275 277 279 280 282 283 286 290 292 288 284 286 282 280 278 279 280 281 280 279 280 289 286 290 286 287 285 290 285 283 272 281 268 278 286 285 284 285 290 290 292